TimeEDT,TemperatureF,Dew PointF,Humidity,Sea Level PressureIn,VisibilityMPH,Wind Direction,Wind SpeedMPH,Gust SpeedMPH,PrecipitationIn,Events,Conditions,WindDirDegrees,DateUTC
12:51 AM,54.0,48.9,83,30.02,10.0,Calm,Calm,-,N/A,,Overcast,0,2012-10-19 04:51:00
1:21 AM,53.6,50.0,88,30.01,10.0,North,5.8,-,N/A,,Overcast,10,2012-10-19 05:21:00
1:51 AM,55.0,52.0,89,30.00,10.0,North,5.8,-,0.00,Rain,Light Rain,10,2012-10-19 05:51:00
2:39 AM,53.6,51.8,94,30.00,10.0,North,3.5,-,0.00,,Overcast,350,2012-10-19 06:39:00
2:51 AM,54.0,51.1,90,29.99,10.0,NNW,4.6,-,0.00,,Overcast,340,2012-10-19 06:51:00
3:51 AM,54.0,52.0,93,29.98,10.0,Calm,Calm,-,0.00,Rain,Light Rain,0,2012-10-19 07:51:00
4:51 AM,54.0,52.0,93,29.96,7.0,NNW,3.5,-,0.03,Rain,Light Rain,330,2012-10-19 08:51:00
5:51 AM,55.0,53.1,93,29.95,7.0,Calm,Calm,-,0.06,,Overcast,0,2012-10-19 09:51:00
6:24 AM,55.4,53.6,94,29.96,8.0,NNW,3.5,-,0.01,Rain,Light Rain,340,2012-10-19 10:24:00
6:51 AM,55.0,54.0,96,29.95,6.0,NE,4.6,-,0.03,Rain,Light Rain,40,2012-10-19 10:51:00
7:32 AM,55.4,53.6,94,29.95,2.5,Calm,Calm,-,0.02,Rain,Light Rain,0,2012-10-19 11:32:00
7:46 AM,55.4,55.4,100,29.95,1.2,Calm,Calm,-,0.06,Rain,Heavy Rain,0,2012-10-19 11:46:00
7:51 AM,55.9,55.0,97,29.96,1.0,Calm,Calm,-,0.09,Rain,Heavy Rain,0,2012-10-19 11:51:00
8:13 AM,57.2,55.4,94,29.94,1.0,NE,4.6,-,0.07,Rain,Light Rain,40,2012-10-19 12:13:00
8:32 AM,57.2,55.4,94,29.94,1.0,ENE,4.6,-,0.09,Rain,Light Rain,60,2012-10-19 12:32:00
8:39 AM,57.2,57.2,100,29.94,1.0,ENE,5.8,-,0.10,Rain,Light Rain,70,2012-10-19 12:39:00
8:46 AM,57.2,57.2,100,29.94,2.0,East,4.6,-,0.10,Rain,Light Rain,80,2012-10-19 12:46:00
8:51 AM,59.0,57.0,93,29.94,2.0,East,4.6,-,0.11,Rain,Light Rain,80,2012-10-19 12:51:00
9:25 AM,59.0,57.2,94,29.91,4.0,East,8.1,-,0.01,Rain,Light Rain,90,2012-10-19 13:25:00
9:51 AM,61.0,57.9,90,29.90,10.0,East,9.2,-,0.01,,Overcast,100,2012-10-19 13:51:00
10:11 AM,60.8,57.2,88,29.90,10.0,SE,3.5,-,N/A,,Overcast,140,2012-10-19 14:11:00
10:51 AM,62.1,59.0,90,29.89,4.0,ESE,8.1,-,0.01,Rain,Rain,110,2012-10-19 14:51:00
11:51 AM,64.9,62.1,90,29.85,10.0,ESE,9.2,-,0.09,,Overcast,110,2012-10-19 15:51:00
12:20 PM,64.4,60.8,88,29.83,2.5,ESE,12.7,20.7,0.00,Rain,Light Rain,110,2012-10-19 16:20:00
12:48 PM,66.2,62.6,88,29.80,10.0,ESE,13.8,20.7,0.01,Rain,Light Rain,120,2012-10-19 16:48:00
12:51 PM,66.0,62.1,87,29.80,10.0,ESE,10.4,20.7,0.01,Rain,Light Rain,120,2012-10-19 16:51:00
1:39 PM,64.4,60.8,88,29.79,2.5,SE,16.1,21.9,0.01,Rain,Light Rain,130,2012-10-19 17:39:00
1:46 PM,64.4,62.6,94,29.79,1.5,SE,12.7,21.9,0.04,Rain,Heavy Rain,140,2012-10-19 17:46:00
1:51 PM,64.9,62.1,90,29.78,1.0,SE,12.7,21.9,0.08,Rain,Heavy Rain,140,2012-10-19 17:51:00
2:03 PM,64.4,62.6,94,29.78,0.8,SSE,11.5,-,0.12,Rain,Heavy Rain,150,2012-10-19 18:03:00
2:05 PM,64.4,62.6,94,29.79,0.8,SSE,12.7,-,0.16,Rain,Heavy Rain,150,2012-10-19 18:05:00
2:12 PM,64.4,62.6,94,29.79,1.0,SSE,11.5,-,0.23,Rain,Rain,150,2012-10-19 18:12:00
2:23 PM,64.4,62.6,94,29.79,2.0,SSE,12.7,-,0.25,Rain,Light Rain,150,2012-10-19 18:23:00
2:25 PM,64.4,62.6,94,29.79,2.0,SSE,12.7,-,0.25,Rain,Light Rain,150,2012-10-19 18:25:00
2:45 PM,66.2,62.6,88,29.78,3.0,SSE,10.4,-,0.28,Rain,Light Rain,150,2012-10-19 18:45:00
2:51 PM,66.0,63.0,90,29.78,3.0,SSE,10.4,-,0.29,Rain,Light Rain,150,2012-10-19 18:51:00
3:08 PM,66.2,62.6,88,29.77,3.0,SE,11.5,-,0.01,Rain,Light Rain,140,2012-10-19 19:08:00
3:37 PM,66.2,64.4,94,29.76,3.0,SSE,9.2,-,0.04,Rain,Light Rain,160,2012-10-19 19:37:00
3:51 PM,66.0,64.0,93,29.75,3.0,SSE,8.1,-,0.05,Rain,Light Rain,150,2012-10-19 19:51:00
4:03 PM,66.2,64.4,94,29.75,1.5,SSE,9.2,-,0.01,Rain,Rain,150,2012-10-19 20:03:00
4:14 PM,66.2,64.4,94,29.74,2.0,SSE,8.1,-,0.09,Rain,Light Rain,150,2012-10-19 20:14:00
4:46 PM,66.2,64.4,94,29.71,3.0,SE,11.5,-,N/A,Rain,Light Rain,140,2012-10-19 20:46:00
4:51 PM,66.0,64.0,93,29.72,3.0,SSE,11.5,-,0.19,Rain,Light Rain,150,2012-10-19 20:51:00
5:30 PM,66.2,64.4,94,29.71,6.0,SSE,8.1,-,0.11,Rain,Light Rain,150,2012-10-19 21:30:00
5:51 PM,66.0,64.0,93,29.71,4.0,South,9.2,-,0.13,Rain,Light Rain,170,2012-10-19 21:51:00
6:11 PM,66.2,64.4,94,29.70,6.0,South,6.9,-,0.01,Rain,Light Rain,170,2012-10-19 22:11:00
6:51 PM,66.0,64.0,93,29.70,10.0,South,6.9,-,0.01,,Overcast,170,2012-10-19 22:51:00
7:51 PM,66.0,64.0,93,29.70,5.0,South,4.6,-,0.01,,Overcast,180,2012-10-19 23:51:00
8:46 PM,66.2,64.4,94,29.70,4.0,South,8.1,-,N/A,,Overcast,170,2012-10-20 00:46:00
8:51 PM,66.0,64.0,93,29.70,2.0,South,8.1,-,N/A,,Overcast,180,2012-10-20 00:51:00
9:51 PM,66.0,64.0,93,29.71,2.0,SSE,8.1,-,N/A,,Overcast,150,2012-10-20 01:51:00
10:13 PM,66.2,64.4,94,29.71,2.0,SSE,8.1,-,N/A,,Overcast,160,2012-10-20 02:13:00
10:19 PM,66.2,64.4,94,29.71,3.0,SSE,9.2,-,N/A,,Overcast,160,2012-10-20 02:19:00
10:41 PM,66.2,64.4,94,29.71,3.0,SSE,6.9,-,N/A,,Overcast,150,2012-10-20 02:41:00
10:51 PM,64.9,64.0,97,29.70,3.0,SE,5.8,-,N/A,,Overcast,140,2012-10-20 02:51:00
11:51 PM,64.9,64.0,97,29.70,3.0,SSE,5.8,-,N/A,,Mostly Cloudy,160,2012-10-20 03:51:00